Weather History for Greensboro, NC

Change the Weather History Date:

Tuesday, January 1, 2002

  Actual Average Record
Temperature  
Mean Temperature 29 °F 39 °F  
Max Temperature 37 °F 48 °F 75 °F (1985)
Min Temperature 21 °F 30 °F 8 °F (1918)
Degree Days  
Heating Degree Days 36 26  
Month to date heating degree days 26  
Since 1 July heating degree days 1440  
Cooling Degree Days 0 0  
Month to date cooling degree days 0  
Year to date cooling degree days 0  
Moisture  
Dew Point 10 °F    
Average Humidity 46    
Maximum Humidity 66    
Minimum Humidity 31    
Precipitation  
Precipitation 0.00 in 0.09 in 1.76 in (1925)
Month to date precipitation 0.09  
Year to date precipitation 0.09  
Snow  
Snow 0.00 in 0.10 in 6.60 in (1962)
Month to date snowfall 0.1  
Since 1 July snowfall 1.0  
Snow Depth -    
Sea Level Pressure  
Sea Level Pressure 30.20 in    
Wind  
Wind Speed 6 mph (North)    
Max Wind Speed 12 mph    
Max Gust Speed -    
Visibility 10 miles    
Events      
T = Trace of Precipitation, MM = Missing Value Source: NWS Daily Summary

Daily Weather History Graph

Daily Weather History Graph

Search for Another Location

Airport:

Trip Planner

Search our weather history database for the weather conditions in past years. The results will help you decide how hot, cold, wet, or windy it might be!

Date:

Astronomy

Jan. 01, 2002 Rise Set
Actual Time 7:30 AM EST 5:16 PM EST
Civil Twilight 7:02 AM EST 5:44 PM EST
Nautical Twilight 6:30 AM EST 6:16 PM EST
Astronomical Twilight 5:58 AM EST 6:48 PM EST
Moon 7:53 PM EST (1/1) 9:33 AM EST (1/1)
Length of Visible Light 10h 42m
Length of Day
9h 45m
Waning Gibbous, 93% of the Moon is Illuminated
Jan 1
Waning Gibbous
Jan 5
Last Quarter
Jan 13
New
Jan 21
First Quarter
Jan 28
Full

Hourly Weather History & Observations

Time (EST) Temp. Windchill Dew Point Humidity Pressure Visibility Wind Dir Wind Speed Gust Speed Precip Events Conditions
12:54 AM 30.0 °F 24.1 °F 14.0 °F 51% 30.08 in 10.0 mi North 5.8 mph - N/A   Scattered Clouds
1:54 AM 28.9 °F 21.9 °F 14.0 °F 54% 30.09 in 10.0 mi NNW 6.9 mph - N/A   Clear
2:54 AM 27.0 °F 21.6 °F 14.0 °F 58% 30.11 in 10.0 mi NNW 4.6 mph - N/A   Clear
3:54 AM 27.0 °F 20.5 °F 14.0 °F 58% 30.12 in 10.0 mi NNW 5.8 mph - N/A   Clear
4:54 AM 25.0 °F 20.7 °F 14.0 °F 63% 30.13 in 10.0 mi NNW 3.5 mph - N/A   Clear
5:54 AM 23.0 °F 17.0 °F 12.9 °F 65% 30.14 in 10.0 mi NNE 4.6 mph - N/A   Clear
6:54 AM 21.9 °F 15.7 °F 12.0 °F 66% 30.16 in 10.0 mi North 4.6 mph - N/A   Clear
7:54 AM 21.9 °F 12.5 °F 12.0 °F 66% 30.19 in 10.0 mi North 8.1 mph - N/A   Partly Cloudy
8:54 AM 25.0 °F 15.5 °F 12.0 °F 58% 30.23 in 10.0 mi North 9.2 mph - N/A   Partly Cloudy
9:54 AM 27.0 °F 18.0 °F 12.0 °F 53% 30.24 in 10.0 mi North 9.2 mph - N/A   Scattered Clouds
10:54 AM 30.0 °F 20.5 °F 10.9 °F 45% 30.22 in 10.0 mi NE 11.5 mph - N/A   Scattered Clouds
11:54 AM 32.0 °F 25.6 °F 10.9 °F 42% 30.20 in 10.0 mi NNE 6.9 mph - N/A   Partly Cloudy
12:54 PM 34.0 °F 28.0 °F 9.0 °F 35% 30.18 in 10.0 mi WNW 6.9 mph - N/A   Partly Cloudy
1:54 PM 36.0 °F 32.1 °F 10.0 °F 34% 30.15 in 10.0 mi Variable 4.6 mph - N/A   Scattered Clouds
2:54 PM 37.0 °F 34.5 °F 10.0 °F 33% 30.18 in 10.0 mi Variable 3.5 mph - N/A   Mostly Cloudy
3:54 PM 37.0 °F 34.5 °F 9.0 °F 31% 30.19 in 10.0 mi Variable 3.5 mph - N/A   Scattered Clouds
4:54 PM 36.0 °F 31.1 °F 9.0 °F 33% 30.20 in 10.0 mi NW 5.8 mph - N/A   Mostly Cloudy
5:54 PM 34.0 °F 31.0 °F 6.1 °F 31% 30.21 in 10.0 mi NNE 3.5 mph - N/A   Mostly Cloudy
6:54 PM 32.0 °F 26.4 °F 5.0 °F 32% 30.26 in 10.0 mi North 5.8 mph - N/A   Scattered Clouds
7:54 PM 30.0 °F 24.1 °F 3.9 °F 33% 30.28 in 10.0 mi North 5.8 mph - N/A   Clear
8:54 PM 28.9 °F 23.9 °F 3.9 °F 35% 30.30 in 10.0 mi NNE 4.6 mph - N/A   Mostly Cloudy
9:54 PM 28.0 °F - 5.0 °F 38% 30.32 in 10.0 mi Calm Calm - N/A   Mostly Cloudy
10:54 PM 26.1 °F 19.4 °F 6.1 °F 43% 30.31 in 10.0 mi North 5.8 mph - N/A   Mostly Cloudy
11:54 PM 26.1 °F 19.4 °F 5.0 °F 41% 30.30 in 10.0 mi North 5.8 mph - N/A   Overcast